Regional Weather Roundup
Issued by NWS Little Rock, AR

Home | Current Version | Previous Version | Text Only | Print | Product List | Glossary Off
Versions: 1 2 3 4 5 6 7 8 9 10 11 12 13 14 15 16 17 18 19 20 21 22 23 24 25 26 27 28 29 30 31 32 33 34 35 36 37 38 39 40 41 42 43 44 45 46 47 48 49 50

000
ASUS44 KLZK 102105
RWRLZK

WEATHER ROUNDUP FOR ARKANSAS
NATIONAL WEATHER SERVICE LITTLE ROCK AR
400 PM CDT THU JUL 10 2014

NOTE: "FAIR" INDICATES FEW OR NO CLOUDS BELOW 12,000 FEET WITH NO
SIGNIFICANT WEATHER AND/OR OBSTRUCTIONS TO VISIBILITY.

ARZ001-003-010-029-102200-
NORTHWEST ARKANSAS

CITY           SKY/WX    TMP DP  RH WIND       PRES   REMARKS
FAYETTEVILLE   RAIN      69  67  93 S5        30.10R FOG
FORT SMITH     CLOUDY    76  68  76 NE16      30.07R
HARRISON       CLOUDY    76  72  87 SE10      30.07S
BENTONVILLE    CLOUDY    72  64  78 S9        30.09S
ROGERS         CLOUDY    71  66  84 S13       30.09R
SILOAM SPGS    CLOUDY    70  63  78 S6        30.09S
HIGHFILL       TSTM      70  69  97 S7        30.08R
SPRINGDALE     RAIN      70  68  94 S6        30.11R
$$

ARZ004-005-016-102200-
NORTH CENTRAL ARKANSAS

CITY           SKY/WX    TMP DP  RH WIND       PRES   REMARKS
BATESVILLE     CLOUDY    84  70  61 S5        30.06S HX  88
FLIPPIN        CLOUDY    81  68  65 E7        30.04F
MTN HOME       CLOUDY    80  70  71 E6        30.05F
$$

ARZ040-041-102200-
WEST CENTRAL ARKANSAS

CITY           SKY/WX    TMP DP  RH WIND       PRES   REMARKS
MENA           MOSUNNY   88  73  62 E9        30.05R HX  96
MOUNT IDA        N/A     76  71  85 CALM      30.04F
$$

ARZ009-017-025-026-028-102200-
NORTHEAST ARKANSAS

CITY           SKY/WX    TMP DP  RH WIND       PRES   REMARKS
CORNING        LGT RAIN  86  66  51 CALM      30.07S HX  88
JONESBORO      SUNNY     85  63  47 NE3       30.05F HX  86
NEWPORT        MOSUNNY   86  68  54 SE3       30.06F HX  89
WALNUT RIDGE   MOSUNNY   86  64  48 CALM      30.05F HX  87
BLYTHEVILLE    CLOUDY    86  65  49 S7        30.06S HX  88
$$

ARZ022-023-033-042-044-102200-
CENTRAL ARKANSAS

CITY           SKY/WX    TMP DP  RH WIND       PRES   REMARKS
LITTLE ROCK    TSTM      71  68  90 W26G44    30.11R VSB 1/4
N LITTLE ROCK  CLOUDY    69  68  98 NW10G29   30.11R
JACKSONVILLE   MOSUNNY   83  73  72 SW12G20   30.06R THUNDER HX  88
SEARCY         CLOUDY    87  71  58 NW3       30.05S HX  92
HOT SPRINGS    CLOUDY    73  68  84 E14       30.07R
RUSSELLVILLE   LGT RAIN  70  67  90 S3        30.05F
CLINTON        RAIN      77  75  94 CALM      30.07F
$$

ARZ036-102200-
EAST ARKANSAS

CITY           SKY/WX    TMP DP  RH WIND       PRES   REMARKS
WEST MEMPHIS   SUNNY     88  66  48 NE6       30.03F HX  90
$$

ARZ050-053-066-070-073-102200-
SOUTHWEST ARKANSAS

CITY           SKY/WX    TMP DP  RH WIND       PRES   REMARKS
ARKADELPHIA    FAIR      82  74  77 N5        30.03S HX  88
CAMDEN         MOSUNNY   86  72  62 N3        30.01F HX  92
TEXARKANA      MOSUNNY   93  66  40 VRB3      30.00F HX  96
EL DORADO      MOSUNNY   88  73  61 E6        30.02F HX  95
DE QUEEN       SUNNY     90  74  59 SE5       29.98F HX  99
$$

ARZ056-057-069-102200-
SOUTHEAST ARKANSAS

CITY           SKY/WX    TMP DP  RH WIND       PRES   REMARKS
PINE BLUFF     MOSUNNY   88  73  61 S5        30.02S HX  95
MONTICELLO     PTSUNNY   90  72  55 W7        30.01F HX  97

$$





USA.gov is the U.S. government's official web portal to all federal, state and local government web resources and services.